Regional Weather Roundup
Issued by NWS New Orleans/Baton Rouge, LA

Home | Current Version | Previous Version | Graphics & Text | Print | Product List | Glossary On
Versions: 1 2 3 4 5 6 7 8 9 10 11 12 13 14 15 16 17 18 19 20 21 22 23 24 25 26 27 28 29 30 31 32 33 34 35 36 37 38 39 40 41 42 43 44 45 46 47 48 49 50
046
ASUS44 KLIX 010410
RWRLIX
NEW ORLEANS REGIONAL WEATHER ROUNDUP
NATIONAL WEATHER SERVICE NEW ORLEANS LA
1000 PM CST SAT JAN 31 2015

NOTE: "FAIR" INDICATES FEW OR NO CLOUDS BELOW 12,000 FEET WITH NO
      SIGNIFICANT WEATHER AND/OR OBSTRUCTIONS TO VISIBILITY.
      SKY/WX - SKY CONDITION AND SIGNIFICANT WEATHER.
      TMP - AIR TEMPERATURE.     DP    - DEWPOINT TEMPERATURE.
      RH  - RELATIVE HUMIDITY.   PRES  - PRESSURE.
      HI  - HEAT INDEX.          WCI   - WIND CHILL INDEX.

*  THESE STATIONS ARE NOT NWS OR FAA STATIONS AND ARE NOT UNDER
   NWS QUALITY CONTROL.

LAZ038-040-048-061>063-065>067-069-010500-
SOUTHEAST LOUISIANA

CITY           SKY/WX    TMP DP  RH WIND       PRES   REMARKS
N.O. AUDUBON     N/A     56  53  89 MISG        N/A
N.O. INTL ARPT CLOUDY    57  51  80 E8        30.14F
N.O. LAKEFRONT MOCLDY    59  51  75 E14       30.15F
N.O. DOWNTOWN* NOT AVBL
SLIDELL        PTCLDY    53  48  83 E3        30.17S
BATON ROUGE    CLOUDY    54  47  77 E12       30.13S
BOOTHVILLE     PTCLDY    58  52  80 E8        30.15F
BELLE CHASSE   MOCLDY    58  51  78 E9        30.14F
BOGALUSA*        N/A     53  45  75 SE3       30.19F
GALLIANO*      CLOUDY    61  55  82 CALM      30.14S
NEW ROADS*     CLOUDY    55  48  77 E7        30.13S
GONZALES*      MOCLDY    55  52  89 E6        30.13S
HAMMOND*       MOCLDY    52  46  82 E3        30.17F
HOUMA*         CLOUDY    56  53  89 E7        30.13S
PORT FOURCHON* MOCLDY    64  57  77 E14G23    30.16S

$$

MSZ070-080>082-010500-
SOUTHERN MISSISSIPPI

CITY           SKY/WX    TMP DP  RH WIND       PRES   REMARKS
MCCOMB         MOCLDY    50  44  80 SE7       30.15F
GULFPORT       MOCLDY    51  45  79 E3        30.19S
BILOXI         MOCLDY    51  47  85 E6        30.19S
PASCAGOULA     MOCLDY    46  44  93 CALM      30.20S

$$

COASTAL OBSERVATIONS
LAKE AND NEARSHORE STATIONS

STATION/POSITION TIME  TEMP    WIND        PRES    WAVE
                       AIR SEA DIR/SP/G            HT/PER
                 (UTC) (F)     (DEG/KT/KT) (MB)    (FT/S)
PASCAGOULA       0400   53      80/  6/  9 1021.7
WAVELAND YACHT   0400   53      60/  5/  5 1021.4
GRAND ISLE       0400   63 63  110/  9/ 16 1020.6
SOUTHWEST PASS   0400   64 48  120/ 20/ 23 1020.6
NEW CANAL        0400   57 55   90/  3/ 10 1021.0
SHELL BEACH      0400   58 57  100/ 11/ 12 1021.2

OFFSHORE STATIONS

STATION/POSITION TIME  TEMP    WIND        PRES    WAVE
                       AIR SEA DIR/SP/G            HT/PER
                 (UTC) (F)     (DEG/KT/KT) (MB)    (FT/S)
64 S DAUPHIN ISL 0341   64 69  130/ 16/ 21 1022.1    4/ 6

$$




USA.gov is the U.S. government's official web portal to all federal, state and local government web resources and services.